| time (UTC) | temp C | wind direction | speed KPH | gust KPH | rain 1hr cm | rain 24hr cm | rain mn cm | humidity % | barometer mb |
| 20260505223831 | 0 | 186 | 1.6 | 3.2 | 0.00 | 0.00 | 0.00 | 77 | 1011.9 |
| 20260505223352 | 1 | 186 | 1.6 | 3.2 | 0.00 | 0.00 | 0.00 | 77 | 1011.8 |
| 20260505222831 | 1 | 186 | 1.6 | 3.2 | 0.00 | 0.00 | 0.00 | 73 | 1011.8 |
| 20260505222333 | 1 | 186 | 0.0 | 0.0 | 0.00 | 0.00 | 0.00 | 72 | 1011.8 |
| 20260505221840 | 1 | 186 | 0.0 | 0.0 | 0.00 | 0.00 | 0.00 | 73 | 1011.8 |
| 20260505221349 | 1 | 186 | 0.0 | 0.0 | 0.00 | 0.00 | 0.00 | 73 | 1011.8 |
| 20260505220836 | 1 | 186 | 0.0 | 0.0 | 0.00 | 0.00 | 0.00 | 72 | 1011.8 |
| 20260505220325 | 1 | 186 | 0.0 | 0.0 | 0.00 | 0.00 | 0.00 | 71 | 1011.8 |
| 20260505215852 | 1 | 186 | 0.0 | 0.0 | 0.00 | 0.00 | 0.00 | 73 | 1011.7 |
| 20260505215329 | 1 | 186 | 0.0 | 0.0 | 0.00 | 0.00 | 0.00 | 76 | 1011.6 |
| 20260505214828 | 1 | 186 | 0.0 | 0.0 | 0.00 | 0.00 | 0.00 | 73 | 1011.6 |
| 20260505214327 | 1 | 186 | 0.0 | 0.0 | 0.00 | 0.00 | 0.00 | 74 | 1011.5 |
| 20260505213836 | 1 | 186 | 0.0 | 1.6 | 0.00 | 0.00 | 0.00 | 72 | 1011.6 |
| 20260505213324 | 1 | 186 | 0.0 | 1.6 | 0.00 | 0.00 | 0.00 | 72 | 1011.5 |
| 20260505212852 | 1 | 186 | 0.0 | 1.6 | 0.00 | 0.00 | 0.00 | 74 | 1011.4 |
| 20260505212331 | 1 | 186 | 1.6 | 3.2 | 0.00 | 0.00 | 0.00 | 77 | 1011.3 |
| 20260505211831 | 1 | 186 | 1.6 | 3.2 | 0.00 | 0.00 | 0.00 | 77 | 1011.3 |
| 20260505211331 | 1 | 186 | 1.6 | 4.8 | 0.00 | 0.00 | 0.00 | 76 | 1011.3 |
| 20260505210832 | 1 | 186 | 1.6 | 4.8 | 0.00 | 0.00 | 0.00 | 76 | 1011.2 |
| 20260505210332 | 1 | 186 | 3.2 | 4.8 | 0.00 | 0.00 | 0.00 | 76 | 1011.2 |
| 20260505205831 | 2 | 186 | 3.2 | 4.8 | 0.00 | 0.00 | 0.00 | 75 | 1011.2 |
| 20260505205349 | 2 | 186 | 3.2 | 4.8 | 0.00 | 0.00 | 0.00 | 73 | 1011.2 |
| 20260505204857 | 2 | 186 | 3.2 | 3.2 | 0.00 | 0.00 | 0.00 | 74 | 1011.2 |
| 20260505204344 | 2 | 186 | 1.6 | 3.2 | 0.00 | 0.00 | 0.00 | 74 | 1011.1 |
| 20260505203832 | 2 | 186 | 1.6 | 3.2 | 0.00 | 0.00 | 0.00 | 73 | 1011.1 |
| 20260505203325 | 2 | 186 | 1.6 | 3.2 | 0.00 | 0.00 | 0.00 | 72 | 1011.0 |
| 20260505202828 | 2 | 186 | 1.6 | 3.2 | 0.00 | 0.00 | 0.00 | 71 | 1010.9 |
| 20260505202328 | 2 | 186 | 1.6 | 3.2 | 0.00 | 0.00 | 0.00 | 71 | 1010.9 |
| 20260505201827 | 3 | 186 | 1.6 | 3.2 | 0.00 | 0.00 | 0.00 | 69 | 1010.8 |
| 20260505201327 | 3 | 186 | 0.0 | 1.6 | 0.00 | 0.00 | 0.00 | 67 | 1010.8 |
| 20260505200857 | 3 | 186 | 0.0 | 1.6 | 0.00 | 0.00 | 0.00 | 67 | 1010.8 |
| 20260505200343 | 3 | 186 | 0.0 | 3.2 | 0.00 | 0.00 | 0.00 | 67 | 1010.8 |
| 20260505195832 | 3 | 186 | 1.6 | 3.2 | 0.00 | 0.00 | 0.00 | 63 | 1010.7 |
| 20260505195341 | 4 | 186 | 1.6 | 3.2 | 0.00 | 0.00 | 0.00 | 63 | 1010.6 |
| 20260505194827 | 4 | 186 | 1.6 | 3.2 | 0.00 | 0.00 | 0.00 | 62 | 1010.6 |
| 20260505194347 | 5 | 186 | 1.6 | 3.2 | 0.00 | 0.00 | 0.00 | 60 | 1010.6 |
| 20260505193827 | 5 | 186 | 1.6 | 3.2 | 0.00 | 0.00 | 0.00 | 56 | 1010.5 |
| 20260505193328 | 5 | 186 | 1.6 | 3.2 | 0.00 | 0.00 | 0.00 | 56 | 1010.5 |
| 20260505192828 | 5 | 186 | 1.6 | 4.8 | 0.00 | 0.00 | 0.00 | 56 | 1010.5 |
| 20260505192329 | 5 | 186 | 1.6 | 4.8 | 0.00 | 0.00 | 0.00 | 55 | 1010.4 |
| 20260505191829 | 6 | 285 | 1.6 | 4.8 | 0.00 | 0.00 | 0.00 | 54 | 1010.4 |
| 20260505191329 | 6 | 284 | 1.6 | 4.8 | 0.00 | 0.00 | 0.00 | 52 | 1010.4 |
| 20260505190830 | 7 | 284 | 1.6 | 3.2 | 0.00 | 0.00 | 0.00 | 49 | 1010.4 |
| 20260505190330 | 7 | 302 | 1.6 | 3.2 | 0.00 | 0.00 | 0.00 | 45 | 1010.3 |
| 20260505185830 | 7 | 302 | 1.6 | 4.8 | 0.00 | 0.00 | 0.00 | 44 | 1010.2 |
| 20260505185350 | 8 | 302 | 1.6 | 6.4 | 0.00 | 0.00 | 0.00 | 44 | 1010.2 |
| 20260505184837 | 8 | 302 | 1.6 | 6.4 | 0.00 | 0.00 | 0.00 | 42 | 1010.1 |
| 20260505184325 | 8 | 288 | 1.6 | 6.4 | 0.00 | 0.00 | 0.00 | 42 | 1010.1 |
| 20260505183853 | 8 | 280 | 3.2 | 8.0 | 0.00 | 0.00 | 0.00 | 39 | 1010.0 |
| 20260505183400 | 8 | 290 | 3.2 | 8.0 | 0.00 | 0.00 | 0.00 | 41 | 1009.9 |
| 20260505182847 | 8 | 285 | 4.8 | 9.7 | 0.00 | 0.00 | 0.00 | 39 | 1009.9 |
| 20260505182335 | 8 | 306 | 3.2 | 9.7 | 0.00 | 0.00 | 0.00 | 42 | 1009.9 |
| 20260505181841 | 9 | 290 | 3.2 | 8.0 | 0.00 | 0.00 | 0.00 | 39 | 1009.8 |
| 20260505181330 | 9 | 303 | 3.2 | 11.3 | 0.00 | 0.00 | 0.00 | 39 | 1009.8 |
| 20260505180836 | 9 | 294 | 6.4 | 12.9 | 0.00 | 0.00 | 0.00 | 38 | 1009.7 |
| 20260505180324 | 9 | 311 | 8.0 | 16.1 | 0.00 | 0.00 | 0.00 | 36 | 1009.7 |
| 20260505175831 | 10 | 300 | 8.0 | 19.3 | 0.00 | 0.00 | 0.00 | 36 | 1009.6 |
| 20260505175331 | 10 | 300 | 8.0 | 19.3 | 0.00 | 0.00 | 0.00 | 36 | 1009.6 |
| 20260505174850 | 10 | 284 | 8.0 | 20.9 | 0.00 | 0.00 | 0.00 | 36 | 1009.6 |
| 20260505174330 | 10 | 300 | 11.3 | 25.7 | 0.00 | 0.00 | 0.00 | 35 | 1009.5 |
| 20260505173830 | 10 | 321 | 8.0 | 19.3 | 0.00 | 0.00 | 0.00 | 37 | 1009.5 |
| 20260505173331 | 10 | 310 | 9.7 | 19.3 | 0.00 | 0.00 | 0.00 | 35 | 1009.5 |
| 20260505172831 | 10 | 309 | 8.0 | 24.1 | 0.00 | 0.00 | 0.00 | 35 | 1009.4 |
| 20260505172400 | 10 | 302 | 9.7 | 24.1 | 0.00 | 0.00 | 0.00 | 34 | 1009.4 |
| 20260505171828 | 11 | 298 | 11.3 | 20.9 | 0.00 | 0.00 | 0.00 | 32 | 1009.3 |
| 20260505171329 | 11 | 300 | 9.7 | 20.9 | 0.00 | 0.00 | 0.00 | 33 | 1009.4 |
| 20260505170830 | 11 | 275 | 9.7 | 14.5 | 0.00 | 0.00 | 0.00 | 37 | 1009.3 |
| 20260505170329 | 11 | 300 | 8.0 | 17.7 | 0.00 | 0.00 | 0.00 | 36 | 1009.3 |
| 20260505165830 | 11 | 268 | 9.7 | 20.9 | 0.00 | 0.00 | 0.00 | 35 | 1009.2 |
| 20260505165351 | 10 | 290 | 8.0 | 20.9 | 0.00 | 0.00 | 0.00 | 35 | 1009.2 |
| 20260505164830 | 10 | 329 | 9.7 | 20.9 | 0.00 | 0.00 | 0.00 | 36 | 1009.2 |
| 20260505164331 | 10 | 298 | 11.3 | 19.3 | 0.00 | 0.00 | 0.00 | 34 | 1009.2 |
| 20260505163839 | 10 | 269 | 9.7 | 17.7 | 0.00 | 0.00 | 0.00 | 34 | 1009.2 |
| 20260505163328 | 11 | 277 | 8.0 | 17.7 | 0.00 | 0.00 | 0.00 | 36 | 1009.2 |
| 20260505162849 | 11 | 290 | 9.7 | 20.9 | 0.00 | 0.00 | 0.00 | 35 | 1009.1 |
| 20260505162329 | 11 | 306 | 9.7 | 25.7 | 0.00 | 0.00 | 0.00 | 35 | 1009.1 |
| 20260505161850 | 11 | 291 | 16.1 | 25.7 | 0.00 | 0.00 | 0.00 | 34 | 1009.1 |
| 20260505161329 | 11 | 309 | 9.7 | 22.5 | 0.00 | 0.00 | 0.00 | 35 | 1009.1 |
| 20260505160830 | 11 | 309 | 11.3 | 29.0 | 0.00 | 0.00 | 0.00 | 33 | 1009.0 |
| 20260505160330 | 11 | 280 | 12.9 | 29.0 | 0.00 | 0.00 | 0.00 | 34 | 1009.0 |
| 20260505153329 | 12 | 278 | 11.3 | 20.9 | 0.00 | 0.00 | 0.00 | 35 | 1009.0 |
| 20260505152829 | 12 | 272 | 8.0 | 17.7 | 0.00 | 0.00 | 0.00 | 36 | 1009.0 |
| 20260505152331 | 12 | 305 | 6.4 | 22.5 | 0.00 | 0.00 | 0.00 | 37 | 1009.0 |
| 20260505151839 | 12 | 278 | 8.0 | 22.5 | 0.00 | 0.00 | 0.00 | 37 | 1009.0 |
| 20260505151328 | 12 | 283 | 12.9 | 20.9 | 0.00 | 0.00 | 0.00 | 36 | 1008.9 |
| 20260505150830 | 12 | 299 | 11.3 | 27.4 | 0.00 | 0.00 | 0.00 | 35 | 1008.9 |
| 20260505150329 | 12 | 279 | 14.5 | 27.4 | 0.00 | 0.00 | 0.00 | 36 | 1008.9 |
| 20260505140325 | 13 | 299 | 9.7 | 24.1 | 0.00 | 0.00 | 0.00 | 35 | 1008.9 |
| 20260505124850 | 11 | 298 | 14.5 | 24.1 | 0.00 | 0.00 | 0.00 | 39 | 1008.8 |
| 20260505124350 | 11 | 288 | 9.7 | 25.7 | 0.00 | 0.00 | 0.00 | 39 | 1008.8 |
| 20260505123831 | 11 | 306 | 11.3 | 25.7 | 0.00 | 0.00 | 0.00 | 38 | 1008.8 |
| 20260505123331 | 11 | 286 | 12.9 | 20.9 | 0.00 | 0.00 | 0.00 | 42 | 1008.8 |
| 20260505122831 | 11 | 285 | 8.0 | 25.7 | 0.00 | 0.00 | 0.00 | 41 | 1008.8 |
| 20260505122339 | 12 | 261 | 14.5 | 27.4 | 0.00 | 0.00 | 0.00 | 35 | 1008.8 |
| 20260505121828 | 13 | 308 | 14.5 | 27.4 | 0.00 | 0.00 | 0.00 | 36 | 1008.7 |
| 20260505121329 | 13 | 118 | 8.0 | 30.6 | 0.00 | 0.00 | 0.00 | 39 | 1008.6 |
| 20260505120829 | 13 | 308 | 12.9 | 24.1 | 0.00 | 0.00 | 0.00 | 37 | 1008.6 |
| 20260505120330 | 13 | 295 | 14.5 | 25.7 | 0.00 | 0.00 | 0.00 | 37 | 1008.5 |
| 20260505115839 | 12 | 276 | 8.0 | 25.7 | 0.00 | 0.00 | 0.00 | 36 | 1008.4 |
| 20260505115328 | 12 | 317 | 16.1 | 22.5 | 0.00 | 0.00 | 0.00 | 34 | 1008.5 |
| 20260505114829 | 13 | 278 | 14.5 | 30.6 | 0.00 | 0.00 | 0.00 | 36 | 1008.4 |
| 20260505114330 | 13 | 314 | 16.1 | 30.6 | 0.00 | 0.00 | 0.00 | 35 | 1008.4 |
| 20260505113831 | 12 | 295 | 4.8 | 25.7 | 0.00 | 0.00 | 0.00 | 35 | 1008.4 |
| 20260505113332 | 12 | 304 | 12.9 | 25.7 | 0.00 | 0.00 | 0.00 | 32 | 1008.5 |
| 20260505112831 | 12 | 319 | 16.1 | 24.1 | 0.00 | 0.00 | 0.00 | 37 | 1008.5 |
| 20260505112340 | 12 | 290 | 9.7 | 22.5 | 0.00 | 0.00 | 0.00 | 38 | 1008.5 |
| 20260505111829 | 11 | 316 | 14.5 | 27.4 | 0.00 | 0.00 | 0.00 | 35 | 1008.5 |
| 20260505111329 | 12 | 283 | 12.9 | 27.4 | 0.00 | 0.00 | 0.00 | 37 | 1008.5 |
| 20260505110830 | 12 | 246 | 9.7 | 27.4 | 0.00 | 0.00 | 0.00 | 36 | 1008.4 |
| 20260505110329 | 12 | 283 | 11.3 | 27.4 | 0.00 | 0.00 | 0.00 | 36 | 1008.4 |
| 20260505101831 | 11 | 284 | 8.0 | 20.9 | 0.00 | 0.00 | 0.00 | 39 | 1008.2 |
| 20260505101331 | 11 | 291 | 11.3 | 22.5 | 0.00 | 0.00 | 0.00 | 37 | 1008.2 |
| 20260505100851 | 12 | 306 | 12.9 | 22.5 | 0.00 | 0.00 | 0.00 | 36 | 1008.1 |
| 20260505100332 | 11 | 315 | 12.9 | 25.7 | 0.00 | 0.00 | 0.00 | 40 | 1008.1 |
| 20260505095851 | 11 | 277 | 11.3 | 22.5 | 0.00 | 0.00 | 0.00 | 40 | 1008.1 |
| 20260505095331 | 11 | 259 | 11.3 | 20.9 | 0.00 | 0.00 | 0.00 | 43 | 1008.1 |
| 20260505094830 | 11 | 299 | 11.3 | 22.5 | 0.00 | 0.00 | 0.00 | 44 | 1008.1 |
| 20260505094327 | 11 | 301 | 16.1 | 24.1 | 0.00 | 0.00 | 0.00 | 43 | 1008.0 |
| 20260505093826 | 11 | 311 | 8.0 | 27.4 | 0.00 | 0.00 | 0.00 | 45 | 1008.0 |
| 20260505093328 | 11 | 300 | 16.1 | 27.4 | 0.00 | 0.00 | 0.00 | 43 | 1008.1 |
| 20260505092826 | 11 | 342 | 11.3 | 22.5 | 0.00 | 0.00 | 0.00 | 46 | 1008.0 |
| 20260505092327 | 11 | 298 | 16.1 | 30.6 | 0.00 | 0.00 | 0.00 | 46 | 1007.9 |
| 20260505091825 | 11 | 283 | 14.5 | 30.6 | 0.00 | 0.00 | 0.00 | 47 | 1008.0 |
| 20260505091345 | 11 | 307 | 11.3 | 22.5 | 0.00 | 0.00 | 0.00 | 48 | 1008.0 |
| 20260505090824 | 11 | 286 | 9.7 | 22.5 | 0.00 | 0.00 | 0.00 | 51 | 1008.0 |
| 20260505090325 | 11 | 287 | 12.9 | 27.4 | 0.00 | 0.00 | 0.00 | 51 | 1007.9 |
| 20260505085831 | 11 | 326 | 14.5 | 27.4 | 0.00 | 0.00 | 0.00 | 49 | 1007.9 |
| 20260505085341 | 11 | 283 | 12.9 | 25.7 | 0.00 | 0.00 | 0.00 | 50 | 1007.9 |
| 20260505084828 | 11 | 320 | 16.1 | 22.5 | 0.00 | 0.00 | 0.00 | 52 | 1007.7 |
| 20260505084336 | 10 | 286 | 4.8 | 14.5 | 0.00 | 0.00 | 0.00 | 57 | 1007.8 |
| 20260505083824 | 9 | 292 | 4.8 | 17.7 | 0.00 | 0.00 | 0.00 | 53 | 1007.8 |
| 20260505083326 | 10 | 288 | 9.7 | 19.3 | 0.00 | 0.00 | 0.00 | 52 | 1007.8 |
| 20260505082826 | 11 | 304 | 9.7 | 20.9 | 0.00 | 0.00 | 0.00 | 52 | 1007.7 |
| 20260505082326 | 11 | 284 | 11.3 | 19.3 | 0.00 | 0.00 | 0.00 | 55 | 1007.7 |
| 20260505081834 | 10 | 312 | 12.9 | 19.3 | 0.00 | 0.00 | 0.00 | 54 | 1007.7 |
| 20260505081341 | 10 | 315 | 9.7 | 17.7 | 0.00 | 0.00 | 0.00 | 59 | 1007.7 |
| 20260505080826 | 9 | 240 | 11.3 | 16.1 | 0.00 | 0.00 | 0.00 | 60 | 1007.7 |
| 20260505080336 | 8 | 298 | 8.0 | 19.3 | 0.00 | 0.00 | 0.00 | 60 | 1007.6 |
| 20260505075824 | 9 | 311 | 14.5 | 19.3 | 0.00 | 0.00 | 0.00 | 59 | 1007.5 |
| 20260505075325 | 10 | 323 | 11.3 | 16.1 | 0.00 | 0.00 | 0.00 | 60 | 1007.5 |
| 20260505074826 | 9 | 331 | 8.0 | 19.3 | 0.00 | 0.00 | 0.00 | 61 | 1007.5 |
| 20260505074346 | 9 | 322 | 11.3 | 19.3 | 0.00 | 0.00 | 0.00 | 61 | 1007.4 |
| 20260505073846 | 9 | 324 | 6.4 | 17.7 | 0.00 | 0.00 | 0.00 | 62 | 1007.4 |
| 20260505073325 | 9 | 319 | 11.3 | 17.7 | 0.00 | 0.00 | 0.00 | 62 | 1007.4 |
| 20260505072826 | 8 | 323 | 8.0 | 16.1 | 0.00 | 0.00 | 0.00 | 63 | 1007.4 |
| 20260505072327 | 8 | 321 | 9.7 | 16.1 | 0.00 | 0.00 | 0.00 | 63 | 1007.3 |
| 20260505071827 | 8 | 275 | 8.0 | 17.7 | 0.00 | 0.00 | 0.00 | 64 | 1007.4 |
| 20260505071328 | 8 | 303 | 11.3 | 17.7 | 0.00 | 0.00 | 0.00 | 65 | 1007.3 |
| 20260505070836 | 8 | 277 | 8.0 | 14.5 | 0.00 | 0.00 | 0.00 | 65 | 1007.3 |
| 20260505070325 | 8 | 296 | 3.2 | 17.7 | 0.00 | 0.00 | 0.00 | 66 | 1007.2 |
| 20260505065825 | 8 | 284 | 11.3 | 17.7 | 0.00 | 0.00 | 0.00 | 66 | 1007.1 |
| 20260505065332 | 8 | 302 | 12.9 | 17.7 | 0.00 | 0.00 | 0.00 | 66 | 1007.0 |
| 20260505064842 | 8 | 288 | 8.0 | 17.7 | 0.00 | 0.00 | 0.00 | 66 | 1007.0 |
| 20260505064349 | 8 | 294 | 8.0 | 17.7 | 0.00 | 0.00 | 0.00 | 68 | 1007.0 |
| 20260505063857 | 7 | 317 | 8.0 | 20.9 | 0.00 | 0.00 | 0.00 | 68 | 1006.9 |
| 20260505063325 | 7 | 287 | 12.9 | 20.9 | 0.00 | 0.00 | 0.00 | 67 | 1006.9 |
| 20260505062826 | 7 | 333 | 8.0 | 17.7 | 0.00 | 0.00 | 0.00 | 70 | 1006.9 |
| 20260505062326 | 7 | 304 | 9.7 | 17.7 | 0.00 | 0.00 | 0.00 | 68 | 1006.7 |
| 20260505061826 | 7 | 281 | 8.0 | 17.7 | 0.00 | 0.00 | 0.00 | 68 | 1006.8 |
| 20260505061328 | 7 | 299 | 8.0 | 16.1 | 0.00 | 0.10 | 0.00 | 69 | 1006.8 |
| 20260505060828 | 7 | 318 | 8.0 | 16.1 | 0.00 | 0.10 | 0.00 | 69 | 1006.7 |
| 20260505060349 | 7 | 282 | 6.4 | 16.1 | 0.00 | 0.10 | 0.00 | 69 | 1006.7 |
| 20260505055829 | 6 | 284 | 8.0 | 16.1 | 0.00 | 0.10 | 0.00 | 69 | 1006.7 |
| 20260505055328 | 6 | 249 | 9.7 | 16.1 | 0.00 | 0.10 | 0.00 | 68 | 1006.7 |
| 20260505054828 | 6 | 277 | 8.0 | 14.5 | 0.00 | 0.10 | 0.00 | 68 | 1006.7 |
| 20260505054326 | 6 | 300 | 8.0 | 20.9 | 0.00 | 0.10 | 0.00 | 69 | 1006.6 |
| 20260505053829 | 6 | 263 | 9.7 | 20.9 | 0.00 | 0.10 | 0.00 | 69 | 1006.6 |
| 20260505053329 | 6 | 277 | 8.0 | 17.7 | 0.00 | 0.10 | 0.00 | 70 | 1006.6 |
| 20260505052829 | 6 | 294 | 6.4 | 17.7 | 0.00 | 0.10 | 0.00 | 70 | 1006.6 |
| 20260505052336 | 6 | 287 | 6.4 | 16.1 | 0.00 | 0.10 | 0.00 | 71 | 1006.6 |
| 20260505051826 | 6 | 277 | 9.7 | 16.1 | 0.00 | 0.10 | 0.00 | 69 | 1006.5 |
| 20260505051325 | 6 | 296 | 6.4 | 17.7 | 0.00 | 0.30 | 0.00 | 69 | 1006.5 |
| 20260505050825 | 6 | 276 | 11.3 | 17.7 | 0.00 | 0.30 | 0.00 | 70 | 1006.4 |
| 20260505050325 | 6 | 296 | 8.0 | 17.7 | 0.00 | 0.30 | 0.00 | 70 | 1006.4 |
| 20260505041328 | 5 | 282 | 6.4 | 16.1 | 0.00 | 0.71 | 0.00 | 72 | 1006.0 |
| 20260505040836 | 5 | 281 | 8.0 | 16.1 | 0.00 | 0.71 | 0.00 | 73 | 1006.1 |
| 20260505040324 | 5 | 289 | 4.8 | 14.5 | 0.00 | 0.71 | 0.00 | 74 | 1006.1 |
| 20260505035831 | 5 | 267 | 8.0 | 14.5 | 0.00 | 0.71 | 0.00 | 74 | 1006.1 |
| 20260505035352 | 5 | 290 | 4.8 | 8.0 | 0.00 | 0.71 | 0.00 | 75 | 1006.0 |
| 20260505034838 | 5 | 304 | 4.8 | 11.3 | 0.00 | 0.71 | 0.00 | 75 | 1006.0 |
| 20260505034346 | 5 | 295 | 4.8 | 11.3 | 0.00 | 0.71 | 0.00 | 75 | 1005.9 |
| 20260505033832 | 5 | 285 | 4.8 | 12.9 | 0.00 | 0.71 | 0.00 | 75 | 1005.9 |
| 20260505033332 | 5 | 304 | 4.8 | 12.9 | 0.00 | 0.71 | 0.00 | 74 | 1006.0 |
| 20260505032838 | 5 | 285 | 6.4 | 9.7 | 0.00 | 0.71 | 0.00 | 74 | 1005.9 |
| 20260505032325 | 5 | 294 | 4.8 | 9.7 | 0.00 | 0.71 | 0.00 | 74 | 1005.9 |
| 20260505031831 | 5 | 283 | 3.2 | 14.5 | 0.00 | 0.71 | 0.00 | 74 | 1005.9 |
| 20260505031338 | 5 | 292 | 6.4 | 16.1 | 0.00 | 0.89 | 0.00 | 74 | 1005.9 |
| 20260505030825 | 5 | 292 | 6.4 | 16.1 | 0.00 | 0.89 | 0.00 | 74 | 1005.9 |
| 20260505030332 | 5 | 304 | 8.0 | 19.3 | 0.00 | 0.89 | 0.00 | 74 | 1005.8 |
| 20260505025837 | 5 | 254 | 8.0 | 20.9 | 0.00 | 0.89 | 0.00 | 75 | 1005.7 |
| 20260505025325 | 5 | 307 | 8.0 | 20.9 | 0.00 | 0.89 | 0.00 | 75 | 1005.6 |
| 20260505024831 | 6 | 290 | 6.4 | 14.5 | 0.00 | 0.89 | 0.00 | 75 | 1005.6 |
| 20260505024331 | 6 | 304 | 9.7 | 16.1 | 0.00 | 0.89 | 0.00 | 75 | 1005.5 |
| 20260505023832 | 6 | 319 | 6.4 | 17.7 | 0.00 | 0.89 | 0.00 | 75 | 1005.5 |
| 20260505023331 | 6 | 301 | 8.0 | 19.3 | 0.00 | 0.89 | 0.00 | 75 | 1005.5 |
| 20260505022831 | 6 | 310 | 8.0 | 20.9 | 0.00 | 0.89 | 0.00 | 76 | 1005.4 |
| 20260505022331 | 6 | 300 | 6.4 | 20.9 | 0.00 | 0.89 | 0.00 | 76 | 1005.3 |
| 20260505021831 | 6 | 271 | 9.7 | 17.7 | 0.00 | 0.89 | 0.00 | 76 | 1005.3 |
| 20260505021350 | 6 | 279 | 6.4 | 16.1 | 0.00 | 0.89 | 0.00 | 77 | 1005.3 |
| 20260505020850 | 6 | 299 | 6.4 | 14.5 | 0.00 | 0.89 | 0.00 | 77 | 1005.2 |
| 20260505020329 | 6 | 297 | 6.4 | 19.3 | 0.00 | 0.89 | 0.00 | 77 | 1005.2 |
| 20260505015829 | 7 | 294 | 9.7 | 19.3 | 0.00 | 0.89 | 0.00 | 77 | 1005.0 |
| 20260505015337 | 7 | 294 | 6.4 | 16.1 | 0.00 | 0.89 | 0.00 | 78 | 1005.1 |
| 20260505014825 | 7 | 286 | 6.4 | 17.7 | 0.00 | 0.89 | 0.00 | 78 | 1005.0 |
| 20260505014331 | 7 | 283 | 8.0 | 19.3 | 0.00 | 0.89 | 0.00 | 78 | 1004.9 |
| 20260505013839 | 7 | 288 | 11.3 | 19.3 | 0.00 | 0.89 | 0.00 | 78 | 1004.9 |
| 20260505013328 | 7 | 294 | 8.0 | 19.3 | 0.00 | 0.89 | 0.00 | 79 | 1004.8 |
| 20260505012829 | 7 | 292 | 8.0 | 19.3 | 0.00 | 0.89 | 0.00 | 79 | 1004.9 |
| 20260505012349 | 7 | 281 | 9.7 | 17.7 | 0.00 | 0.89 | 0.00 | 79 | 1004.7 |
| 20260505011836 | 7 | 308 | 9.7 | 17.7 | 0.00 | 0.89 | 0.00 | 79 | 1004.7 |
| 20260505011325 | 7 | 276 | 9.7 | 17.7 | 0.00 | 0.89 | 0.00 | 80 | 1004.7 |
| 20260505010832 | 7 | 290 | 8.0 | 16.1 | 0.00 | 0.89 | 0.00 | 80 | 1004.6 |
| 20260505010340 | 7 | 288 | 6.4 | 19.3 | 0.00 | 0.89 | 0.00 | 79 | 1004.7 |
| 20260505005828 | 8 | 276 | 6.4 | 16.1 | 0.00 | 0.89 | 0.00 | 79 | 1004.5 |
| 20260505005336 | 8 | 284 | 8.0 | 14.5 | 0.00 | 0.89 | 0.00 | 79 | 1004.5 |
| 20260505004824 | 8 | 269 | 4.8 | 17.7 | 0.00 | 0.89 | 0.00 | 79 | 1004.4 |
| 20260505004351 | 8 | 281 | 8.0 | 17.7 | 0.00 | 0.89 | 0.00 | 78 | 1004.4 |
| 20260505003828 | 8 | 281 | 8.0 | 17.7 | 0.00 | 0.89 | 0.00 | 78 | 1004.4 |
| 20260505003328 | 8 | 283 | 6.4 | 16.1 | 0.00 | 0.89 | 0.00 | 78 | 1004.3 |
| 20260505002829 | 8 | 271 | 6.4 | 25.7 | 0.00 | 0.89 | 0.00 | 78 | 1004.3 |
| 20260505002329 | 8 | 269 | 9.7 | 25.7 | 0.00 | 0.89 | 0.00 | 77 | 1004.3 |
| 20260505001830 | 8 | 281 | 6.4 | 19.3 | 0.00 | 0.89 | 0.00 | 77 | 1004.2 |
| 20260505001331 | 8 | 286 | 4.8 | 30.6 | 0.00 | 0.89 | 0.00 | 77 | 1004.2 |
| 20260505000839 | 8 | 275 | 9.7 | 30.6 | 0.00 | 0.89 | 0.00 | 77 | 1004.1 |
| 20260505000328 | 8 | 294 | 4.8 | 17.7 | 0.00 | 0.89 | 0.00 | 76 | 1004.1 |
| 20260504235828 | 8 | 309 | 6.4 | 17.7 | 0.00 | 0.89 | 0.00 | 76 | 1004.1 |
| 20260504235328 | 8 | 296 | 4.8 | 16.1 | 0.00 | 0.89 | 0.00 | 76 | 1004.1 |
| 20260504234837 | 8 | 279 | 8.0 | 19.3 | 0.00 | 0.89 | 0.00 | 75 | 1004.1 |
| 20260504234325 | 8 | 286 | 9.7 | 24.1 | 0.00 | 0.89 | 0.00 | 75 | 1004.0 |
| 20260504233854 | 9 | 254 | 4.8 | 24.1 | 0.00 | 0.89 | 0.00 | 74 | 1004.0 |
| 20260504233339 | 9 | 292 | 6.4 | 22.5 | 0.00 | 0.89 | 0.00 | 74 | 1004.0 |
| 20260504232828 | 9 | 292 | 3.2 | 20.9 | 0.00 | 0.89 | 0.00 | 73 | 1004.0 |
| 20260504232328 | 9 | 264 | 6.4 | 22.5 | 0.00 | 0.89 | 0.00 | 73 | 1004.0 |
| 20260504231829 | 9 | 346 | 8.0 | 24.1 | 0.00 | 0.89 | 0.00 | 72 | 1004.1 |
| 20260504231331 | 9 | 299 | 4.8 | 24.1 | 0.00 | 0.89 | 0.00 | 71 | 1004.1 |
| 20260504230851 | 9 | 95 | 4.8 | 17.7 | 0.00 | 0.89 | 0.00 | 70 | 1003.9 |
| 20260504230331 | 9 | 265 | 6.4 | 17.7 | 0.00 | 0.89 | 0.00 | 70 | 1003.9 |
| 20260504225830 | 9 | 264 | 6.4 | 19.3 | 0.00 | 0.89 | 0.00 | 69 | 1003.8 |
| 20260504225339 | 9 | 275 | 6.4 | 16.1 | 0.00 | 0.89 | 0.00 | 69 | 1003.9 |
| 20260504224828 | 9 | 305 | 6.4 | 16.1 | 0.00 | 0.89 | 0.00 | 67 | 1003.9 |
| 20260504224337 | 9 | 284 | 4.8 | 11.3 | 0.00 | 0.89 | 0.00 | 67 | 1003.9 |